Location: Unspecified
(0.0000°N, 0.0000°E)
Time: 04:14:27
(UTC+00:00)

A-11 Canister half - Pass Details

Date: 20 April 2026
Orbit: 1523 x 1685 km, 47.3° (Epoch: 13 May)

Event Time Altitude Azimuth Distance (km) Brightness Sun altitude
Rises 18:17:10 0° 188° (S) 4,703 11.5 -4.5°
Reaches altitude 10° 18:22:09 10° 166° (SSE) 3,745 10.8 -5.7°
Maximum altitude 18:27:05 15° 134° (SE) 3,379 10.3 -6.9°
Drops below altitude 10° 18:32:04 10° 102° (ESE) 3,807 10.4 -8.1°
Enters shadow 18:32:34 - 99° (E) 3,886 10.4 -8.2°
Sets 18:37:07 0° 80° (E) 4,825 - -9.4°
